When you browse on this site, cookies collect data to enhance your experience and personalize the content and advertising you see.
Visit our Privacy Policy to learn more. By continuing to use the site, you agree to this use of cookies and data.
  • Em Portugal
  • Lista de países
  • Para 7 dias
  • Temperatura da água
  • Mapas de satélite
  • Mapa do tempo
  • Widgets de tempo
  • user-avatar
    Iniciar Sessão

    Previsão horária em Evlakh

    Hoje, 24 Janeiro, Quinta-feira

    Tempo Temperatura Precipitação Vento Pressão Humidade
    00:00 +8°C° 0 mm 1 m/s 766 mmHg 68%
    01:00 +8°C° 0 mm 1 m/s 766 mmHg 70%
    02:00 +7°C° 0 mm 1 m/s 765 mmHg 71%
    03:00 +7°C° 0 mm 1 m/s 765 mmHg 71%
    04:00 +6°C° 0 mm 1 m/s 765 mmHg 70%
    05:00 +6°C° 0 mm 1 m/s 765 mmHg 69%
    06:00 +5°C° 0 mm 2 m/s 765 mmHg 69%
    07:00 +5°C° 0 mm 2 m/s 765 mmHg 63%
    08:00 +6°C° 0 mm 2 m/s 764 mmHg 58%
    09:00 +7°C° 0 mm 1 m/s 764 mmHg 52%
    10:00 +7°C° 0 mm 2 m/s 764 mmHg 45%
    11:00 +8°C° 0 mm 2 m/s 763 mmHg 38%
    12:00 +9°C° 0 mm 2 m/s 763 mmHg 31%
    13:00 +10°C° 0 mm 2 m/s 762 mmHg 30%
    14:00 +10°C° 0 mm 2 m/s 762 mmHg 29%
    15:00 +12°C° 0 mm 1 m/s 762 mmHg 27%
    16:00 +11°C° 0 mm 1 m/s 762 mmHg 30%
    17:00 +10°C° 0 mm 1 m/s 762 mmHg 34%
    18:00 +9°C° 0 mm 1 m/s 762 mmHg 37%
    19:00 +9°C° 0 mm 1 m/s 762 mmHg 40%
    20:00 +8°C° 0 mm 1 m/s 762 mmHg 42%
    21:00 +8°C° 0 mm 1 m/s 761 mmHg 45%
    22:00 +8°C° 0 mm 1 m/s 761 mmHg 45%
    23:00 +8°C° 0 mm 1 m/s 761 mmHg 45%

    Amanhã, 25 Janeiro, Sexta-feira

    Tempo Temperatura Precipitação Vento Pressão Humidade
    00:00 +7°C° 0 mm 1 m/s 761 mmHg 46%
    01:00 +6°C° 0 mm 2 m/s 760 mmHg 45%
    02:00 +6°C° 0 mm 2 m/s 760 mmHg 45%
    03:00 +5°C° 0 mm 3 m/s 760 mmHg 44%
    04:00 +5°C° 0 mm 3 m/s 759 mmHg 44%
    05:00 +5°C° 0 mm 4 m/s 759 mmHg 43%
    06:00 +5°C° 0 mm 4 m/s 759 mmHg 42%
    07:00 +6°C° 0 mm 5 m/s 759 mmHg 40%
    08:00 +7°C° 0 mm 5 m/s 759 mmHg 38%
    09:00 +8°C° 0 mm 6 m/s 758 mmHg 36%
    10:00 +9°C° 0 mm 6 m/s 758 mmHg 33%
    11:00 +11°C° 0 mm 7 m/s 758 mmHg 30%
    12:00 +14°C° 0 mm 7 m/s 758 mmHg 27%
    13:00 +14°C° 0 mm 7 m/s 757 mmHg 28%
    14:00 +14°C° 0 mm 6 m/s 757 mmHg 28%
    15:00 +14°C° 0 mm 6 m/s 757 mmHg 29%
    16:00 +13°C° 0 mm 5 m/s 758 mmHg 32%
    17:00 +12°C° 0 mm 4 m/s 759 mmHg 35%
    18:00 +11°C° 0 mm 3 m/s 759 mmHg 38%
    19:00 +11°C° 0 mm 3 m/s 760 mmHg 39%
    20:00 +10°C° 0 mm 3 m/s 760 mmHg 41%
    21:00 +10°C° 0 mm 3 m/s 760 mmHg 42%
    22:00 +9°C° 0 mm 2 m/s 761 mmHg 43%
    23:00 +9°C° 0 mm 2 m/s 761 mmHg 44%

    Depois de amanhã, 26 Janeiro, Sábado

    Tempo Temperatura Precipitação Vento Pressão Humidade
    00:00 +9°C° 0 mm 2 m/s 761 mmHg 44%
    01:00 +8°C° 0 mm 2 m/s 762 mmHg 45%
    02:00 +9°C° 0 mm 1 m/s 762 mmHg 45%
    03:00 +9°C° 0 mm 1 m/s 762 mmHg 46%
    04:00 +8°C° 0 mm 1 m/s 762 mmHg 46%
    05:00 +8°C° 0 mm 1 m/s 762 mmHg 47%
    06:00 +6°C° 0 mm 0 m/s 762 mmHg 48%
    07:00 +8°C° 0 mm 1 m/s 762 mmHg 46%
    08:00 +9°C° 0 mm 1 m/s 762 mmHg 45%
    09:00 +9°C° 0 mm 2 m/s 763 mmHg 43%
    10:00 +10°C° 0 mm 2 m/s 762 mmHg 41%
    11:00 +12°C° 0 mm 2 m/s 762 mmHg 39%
    12:00 +13°C° 0 mm 2 m/s 761 mmHg 37%
    13:00 +13°C° 0 mm 2 m/s 761 mmHg 37%
    14:00 +13°C° 0 mm 1 m/s 760 mmHg 37%
    15:00 +14°C° 0 mm 1 m/s 760 mmHg 36%
    16:00 +13°C° 0 mm 1 m/s 760 mmHg 40%
    17:00 +12°C° 0 mm 1 m/s 760 mmHg 45%
    18:00 +11°C° 0 mm 1 m/s 760 mmHg 49%
    19:00 +9°C° 0 mm 2 m/s 760 mmHg 50%
    20:00 +9°C° 0 mm 2 m/s 760 mmHg 51%
    21:00 +9°C° 0 mm 2 m/s 760 mmHg 52%
    22:00 +8°C° 0 mm 2 m/s 760 mmHg 49%
    23:00 +8°C° 0 mm 2 m/s 760 mmHg 47%

    27 Janeiro, Domingo

    Tempo Temperatura Precipitação Vento Pressão Humidade
    00:00 +8°C° 0 mm 2 m/s 760 mmHg 45%
    01:00 +8°C° 0 mm 3 m/s 759 mmHg 43%
    02:00 +7°C° 0 mm 3 m/s 759 mmHg 41%
    03:00 +7°C° 0 mm 3 m/s 759 mmHg 39%
    04:00 +6°C° 0 mm 4 m/s 759 mmHg 40%
    05:00 +6°C° 0 mm 4 m/s 759 mmHg 41%
    06:00 +6°C° 0 mm 4 m/s 759 mmHg 43%
    07:00 +7°C° 0 mm 4 m/s 759 mmHg 41%
    08:00 +8°C° 0 mm 5 m/s 759 mmHg 40%
    09:00 +9°C° 0 mm 5 m/s 759 mmHg 39%
    10:00 +10°C° 0 mm 5 m/s 758 mmHg 36%
    11:00 +13°C° 0 mm 5 m/s 757 mmHg 33%
    12:00 +15°C° 0 mm 5 m/s 756 mmHg 30%
    13:00 +14°C° 0 mm 5 m/s 756 mmHg 31%
    14:00 +14°C° 0 mm 5 m/s 755 mmHg 32%
    15:00 +14°C° 0 mm 5 m/s 755 mmHg 33%
    16:00 +13°C° 0 mm 5 m/s 755 mmHg 36%
    17:00 +12°C° 0 mm 5 m/s 755 mmHg 39%
    18:00 +12°C° 0 mm 4 m/s 755 mmHg 42%
    19:00 +11°C° 0 mm 4 m/s 755 mmHg 46%
    20:00 +10°C° 0 mm 4 m/s 755 mmHg 50%
    21:00 +10°C° 0 mm 4 m/s 755 mmHg 54%
    22:00 +10°C° 0 mm 4 m/s 755 mmHg 55%
    23:00 +8°C° 0 mm 4 m/s 755 mmHg 57%

    28 Janeiro, Segunda-feira

    Tempo Temperatura Precipitação Vento Pressão Humidade
    00:00 +8°C° 0 mm 4 m/s 755 mmHg 58%
    01:00 +8°C° 0 mm 4 m/s 756 mmHg 57%
    02:00 +8°C° 0 mm 5 m/s 756 mmHg 57%
    03:00 +8°C° 0 mm 5 m/s 756 mmHg 56%
    04:00 +8°C° 0 mm 5 m/s 757 mmHg 56%
    05:00 +8°C° 0 mm 6 m/s 757 mmHg 56%
    06:00 +8°C° 0 mm 6 m/s 757 mmHg 56%
    07:00 +8°C° 0 mm 6 m/s 758 mmHg 53%
    08:00 +9°C° 0 mm 6 m/s 758 mmHg 51%
    09:00 +10°C° 0 mm 7 m/s 758 mmHg 48%
    10:00 +11°C° 0 mm 7 m/s 758 mmHg 42%
    11:00 +14°C° 0 mm 7 m/s 757 mmHg 36%
    12:00 +16°C° 0 mm 7 m/s 757 mmHg 30%
    13:00 +16°C° 0 mm 6 m/s 757 mmHg 30%
    14:00 +16°C° 0 mm 6 m/s 757 mmHg 29%
    15:00 +16°C° 0 mm 5 m/s 757 mmHg 29%
    16:00 +15°C° 0 mm 4 m/s 757 mmHg 34%
    17:00 +14°C° 0 mm 4 m/s 758 mmHg 38%
    18:00 +13°C° 0 mm 3 m/s 759 mmHg 42%
    19:00 +12°C° 0 mm 4 m/s 759 mmHg 53%
    20:00 +11°C° 0 mm 4 m/s 759 mmHg 63%
    21:00 +9°C° 0 mm 5 m/s 759 mmHg 74%
    22:00 +8°C° 0.2 mm 4 m/s 759 mmHg 78%
    23:00 +7°C° 0.2 mm 4 m/s 759 mmHg 83%

    29 Janeiro, Terça-feira

    Tempo Temperatura Precipitação Vento Pressão Humidade
    00:00 +7°C° 0.2 mm 4 m/s 759 mmHg 87%
    01:00 +8°C° 0.7 mm 3 m/s 759 mmHg 88%
    02:00 +7°C° 0.7 mm 3 m/s 759 mmHg 89%
    03:00 +7°C° 0.7 mm 2 m/s 760 mmHg 90%
    04:00 +7°C° 0.4 mm 2 m/s 759 mmHg 91%
    05:00 +7°C° 0.4 mm 2 m/s 759 mmHg 91%
    06:00 +7°C° 0.4 mm 2 m/s 759 mmHg 92%
    07:00 +8°C° 0.4 mm 1 m/s 760 mmHg 92%
    08:00 +8°C° 0.4 mm 1 m/s 760 mmHg 93%
    09:00 +8°C° 0.4 mm 1 m/s 761 mmHg 94%
    10:00 +8°C° 0.2 mm 1 m/s 761 mmHg 90%
    11:00 +9°C° 0.2 mm 1 m/s 761 mmHg 86%
    12:00 +8°C° 0.2 mm 2 m/s 761 mmHg 82%
    13:00 +9°C° 0.2 mm 2 m/s 761 mmHg 80%
    14:00 +9°C° 0.2 mm 2 m/s 762 mmHg 78%
    15:00 +9°C° 0.2 mm 2 m/s 762 mmHg 76%
    16:00 +9°C° 0.1 mm 2 m/s 763 mmHg 79%
    17:00 +8°C° 0.1 mm 2 m/s 763 mmHg 83%
    18:00 +8°C° 0.1 mm 3 m/s 764 mmHg 87%
    19:00 +8°C° 0 mm 3 m/s 764 mmHg 88%
    20:00 +7°C° 0 mm 3 m/s 765 mmHg 89%
    21:00 +7°C° 0 mm 3 m/s 765 mmHg 90%
    22:00 +7°C° 0 mm 2 m/s 765 mmHg 91%
    23:00 +6°C° 0 mm 2 m/s 766 mmHg 92%
    Mostrar mais